TimeCET,TemperatureF,Dew PointF,Humidity,Sea Level PressureIn,VisibilityMPH,Wind Direction,Wind SpeedMPH,Gust SpeedMPH,PrecipitationIn,Events,Conditions,WindDirDegrees,DateUTC
12:00 AM,21.2,12.2,68,30.04,-9999.0,East,19.6,-,N/A,,Clear,80,2013-03-24 23:00:00
12:30 AM,21.2,12.2,68,30.04,-9999.0,East,18.4,-,N/A,,Clear,80,2013-03-24 23:30:00
1:00 AM,21,12,57,30.12,25,East,17.9,,,,Clear,80,2013-03-25 00:00:00
1:01 AM,21.2,12.2,68,30.01,-9999.0,East,21.9,-,N/A,,Clear,80,2013-03-25 00:01:00
1:30 AM,21.2,12.2,68,30.01,-9999.0,East,19.6,-,N/A,,Clear,80,2013-03-25 00:30:00
2:00 AM,21.2,12.2,68,30.01,-9999.0,East,20.7,-,N/A,,Clear,80,2013-03-25 01:00:00
2:30 AM,21.2,12.2,68,30.01,-9999.0,East,18.4,-,N/A,,Clear,80,2013-03-25 01:30:00
3:00 AM,21.2,12.2,68,29.98,-9999.0,East,20.7,-,N/A,,Clear,80,2013-03-25 02:00:00
3:30 AM,21.2,12.2,68,29.98,-9999.0,East,18.4,-,N/A,,Clear,80,2013-03-25 02:30:00
4:00 AM,21.2,12.2,68,29.98,-9999.0,East,19.6,-,N/A,,Clear,80,2013-03-25 03:00:00
4:30 AM,21.2,12.2,68,29.98,-9999.0,East,17.3,-,N/A,,Clear,80,2013-03-25 03:30:00
5:00 AM,21.2,12.2,68,29.98,-9999.0,East,18.4,-,N/A,,Clear,80,2013-03-25 04:00:00
5:30 AM,21.2,12.2,68,29.98,-9999.0,East,18.4,-,N/A,,Clear,80,2013-03-25 04:30:00
6:00 AM,21.2,12.2,68,29.98,-9999.0,East,18.4,-,N/A,,Clear,90,2013-03-25 05:00:00
6:30 AM,21.2,12.2,68,29.98,6.2,East,17.3,-,N/A,,Partly Cloudy,80,2013-03-25 05:30:00
7:00 AM,21,11,53,30.08,12,East,15.7,,,,Overcast,90,2013-03-25 06:00:00
7:00 AM,21.2,12.2,68,29.98,6.2,East,17.3,-,N/A,,Partly Cloudy,90,2013-03-25 06:00:00
7:30 AM,21.2,12.2,68,29.98,6.2,East,17.3,-,N/A,,Partly Cloudy,80,2013-03-25 06:30:00
8:00 AM,23.0,12.2,63,29.98,6.2,East,17.3,-,N/A,,Scattered Clouds,80,2013-03-25 07:00:00
8:30 AM,23.0,10.4,59,29.98,6.2,East,17.3,-,N/A,,Scattered Clouds,80,2013-03-25 07:30:00
9:00 AM,23.0,10.4,59,29.98,6.2,East,18.4,-,N/A,,Mostly Cloudy,80,2013-03-25 08:00:00
9:15 AM,23.0,10.4,59,29.98,6.2,East,17.3,-,N/A,Snow,Light Snow,80,2013-03-25 08:15:00
9:30 AM,23.0,10.4,59,29.98,6.2,East,20.7,-,N/A,Snow,Light Snow,80,2013-03-25 08:30:00
10:00 AM,23.0,10.4,59,29.98,6.2,East,20.7,-,N/A,Snow,Light Snow,90,2013-03-25 09:00:00
10:30 AM,24.8,12.2,59,29.98,6.2,East,23.0,-,N/A,,Mostly Cloudy,80,2013-03-25 09:30:00
11:00 AM,24.8,12.2,59,29.98,6.2,East,18.4,-,N/A,,Mostly Cloudy,80,2013-03-25 10:00:00
11:30 AM,26.6,12.2,55,29.95,6.2,East,19.6,-,N/A,,Scattered Clouds,80,2013-03-25 10:30:00
12:00 PM,26.6,12.2,55,29.95,6.2,East,20.7,-,N/A,,Mostly Cloudy,80,2013-03-25 11:00:00
12:30 PM,26.6,14.0,59,29.95,6.2,East,20.7,-,N/A,,Scattered Clouds,80,2013-03-25 11:30:00
1:00 PM,29,10,31,30.01,16,East,20.1,,,,Partly Cloudy,80,2013-03-25 12:00:00
1:00 PM,28.4,12.2,51,29.95,6.2,East,20.7,-,N/A,,Scattered Clouds,90,2013-03-25 12:00:00
1:30 PM,30.2,12.2,47,29.92,6.2,ENE,20.7,-,N/A,,Scattered Clouds,70,2013-03-25 12:30:00
2:00 PM,28.4,12.2,51,29.92,6.2,East,21.9,-,N/A,,Partly Cloudy,80,2013-03-25 13:00:00
2:30 PM,30.2,12.2,47,29.92,6.2,ENE,24.2,-,N/A,,Partly Cloudy,70,2013-03-25 13:30:00
3:00 PM,28.4,12.2,51,29.92,6.2,ENE,23.0,-,N/A,,Partly Cloudy,70,2013-03-25 14:00:00
3:30 PM,30.2,12.2,47,29.89,6.2,East,20.7,-,N/A,,Partly Cloudy,80,2013-03-25 14:30:00
4:00 PM,30.2,12.2,47,29.89,6.2,East,21.9,-,N/A,,Partly Cloudy,80,2013-03-25 15:00:00
4:30 PM,30.2,10.4,44,29.89,6.2,East,19.6,-,N/A,,Partly Cloudy,80,2013-03-25 15:30:00
5:00 PM,28.4,10.4,47,29.89,6.2,East,23.0,-,N/A,,Scattered Clouds,80,2013-03-25 16:00:00
5:30 PM,28.4,12.2,51,29.89,6.2,East,19.6,-,N/A,,Overcast,90,2013-03-25 16:30:00
5:37 PM,26.6,12.2,55,29.89,6.2,East,20.7,-,N/A,Snow,Light Snow,80,2013-03-25 16:37:00
6:00 PM,26.6,14.0,59,29.89,6.2,East,20.7,-,N/A,Snow,Light Snow,80,2013-03-25 17:00:00
6:30 PM,26.6,14.0,59,29.89,6.2,East,20.7,-,N/A,Snow,Light Snow,80,2013-03-25 17:30:00
7:00 PM,26,13,45,29.99,12,East,20.1,,,Snow,Light Snow,80,2013-03-25 18:00:00
7:00 PM,26.6,14.0,59,29.89,6.2,East,20.7,-,N/A,Snow,Light Snow,80,2013-03-25 18:00:00
7:30 PM,26.6,15.8,64,29.92,6.2,ENE,17.3,-,N/A,Snow,Light Snow,70,2013-03-25 18:30:00
8:00 PM,26.6,15.8,64,29.89,6.2,East,19.6,-,N/A,,Partly Cloudy,80,2013-03-25 19:00:00
8:30 PM,26.6,14.0,59,29.89,6.2,ENE,17.3,-,N/A,,Partly Cloudy,70,2013-03-25 19:30:00
9:00 PM,26.6,14.0,59,29.89,6.2,ENE,16.1,-,N/A,,Partly Cloudy,60,2013-03-25 20:00:00
9:30 PM,26.6,14.0,59,29.89,-9999.0,ENE,18.4,-,N/A,,Clear,60,2013-03-25 20:30:00
10:00 PM,26.6,14.0,59,29.89,-9999.0,ENE,17.3,-,N/A,,Clear,60,2013-03-25 21:00:00
10:30 PM,24.8,12.2,59,29.89,-9999.0,ENE,16.1,-,N/A,,Clear,60,2013-03-25 21:30:00
11:00 PM,24.8,12.2,59,29.89,-9999.0,ENE,13.8,-,N/A,,Clear,60,2013-03-25 22:00:00
11:30 PM,24.8,12.2,59,29.89,-9999.0,ENE,15.0,-,N/A,,Clear,60,2013-03-25 22:30:00